User: anonymous   Login
Location: Unspecified
(0.0000°N, 0.0000°E)
Time: 03:33:57
(UTC+00:00)
Language:

OAO 3 Copernicus - Orbit

View from above orbital plane
View from above orbital plane
View from above satellite
View from above satellite

Ground track
Ground track

The orbit data is extracted from the following two-line orbital elements,

1  6153U 72065A   17112.90021015 +.00000105 +00000-0 +27043-4 0  9991
2  6153 035.0082 004.4971 0007031 332.8555 085.1081 14.57829987372546
Epoch (UTC): 22 April 2017 21:36:18
Eccentricity: 0.0007031
inclination: 35.0082°
perigee height: 695 km
apogee height: 705 km
right ascension of ascending node: 4.4971°
argument of perigee: 332.8555°
revolutions per day: 14.57829987
mean anomaly at epoch: 85.1081°
orbit number at epoch: 37254

The dashed part of the orbit path shows where the satellite is in the earth's shadow,  

DLR